Observations for Trim Patrick St
| Time | AQI | Temp °C | Hum % | Pres Pa | CO μg/m³ | H₂S μg/m³ | NO μg/m³ | NO₂ μg/m³ | O₃ μg/m³ | SO₂ μg/m³ | PM1 μg/m³ | PM2.5 μg/m³ | PM10 μg/m³ |
|---|---|---|---|---|---|---|---|---|---|---|---|---|---|
| Saturday 8 August 2026 | |||||||||||||
| 19:53 | 3 | 27.7 | 39 | 69,147 | 0 | 13.27 | 0.85 | 20.74 | 60.29 | 13.62 | 2.86 | 7.89 | 8.68 |
| 19:50 | 3 | 27.7 | 39 | 69,169 | 0 | 10.25 | 0.84 | 21.83 | 62.58 | 12.49 | 2.86 | 7.89 | 8.68 |
| 19:49 | 3 | 27.8 | 39 | 69,155 | 0 | 8.11 | 0.83 | 17.63 | 63.89 | 12.68 | 2.86 | 8.68 | 9.55 |
| 19:48 | 3 | 27.8 | 39 | 69,169 | 0 | 8.56 | 0.81 | 15.48 | 54.22 | 12 | 2.86 | 8.69 | 9.56 |
| 19:47 | 3 | 27.8 | 39 | 69,185 | 0 | 13.29 | 0.87 | 24.51 | 56.79 | 13.41 | 2.86 | 7.89 | 8.68 |
| 19:46 | 3 | 27.8 | 39 | 69,175 | 0 | 14.06 | 0.87 | 22.02 | 57.9 | 13.24 | 2.86 | 8.68 | 9.55 |
| 19:45 | 3 | 27.8 | 39 | 69,163 | 0 | 15.1 | 0.92 | 35.1 | 53.33 | 12.76 | 2 | 7.11 | 7.82 |
| 19:44 | 3 | 27.8 | 39 | 69,179 | 0 | 14.28 | 0.88 | 24.24 | 59.59 | 13.2 | 2.86 | 8.68 | 9.55 |
| 19:43 | 3 | 27.8 | 39 | 69,193 | 0 | 10.22 | 0.87 | 17.64 | 59.31 | 12.92 | 2 | 7.11 | 7.82 |
| 19:42 | 3 | 27.9 | 39 | 69,187 | 0 | 12.03 | 0.79 | 17.28 | 58.17 | 13.12 | 2.86 | 9.45 | 10.4 |
| 19:41 | 3 | 27.8 | 39 | 69,179 | 0 | 14.54 | 0.84 | 24.34 | 62.38 | 13.35 | 2.86 | 7.87 | 8.65 |
| 19:40 | 3 | 27.8 | 39 | 69,167 | 0 | 17.21 | 0.84 | 19.21 | 64.46 | 14.46 | 2.86 | 8.65 | 9.52 |
| 19:39 | 3 | 27.9 | 39 | 69,181 | 0 | 16.41 | 0.82 | 22.57 | 69.15 | 13.86 | 2 | 7.08 | 7.79 |
| 19:38 | 3 | 27.8 | 39 | 69,175 | 0 | 16.31 | 0.87 | 23.03 | 60.7 | 13.48 | 2 | 7.88 | 8.67 |
| 19:37 | 3 | 27.9 | 39 | 69,161 | 0 | 19.4 | 0.83 | 34.85 | 56.75 | 14.17 | 2.86 | 8.66 | 9.53 |
| 19:36 | 3 | 27.9 | 39 | 69,181 | 0 | 18.14 | 0.79 | 22.62 | 67.72 | 14.39 | 2 | 7.87 | 8.66 |
| 19:35 | 3 | 27.9 | 39 | 69,173 | 0 | 16.62 | 0.78 | 17.97 | 72.71 | 14.11 | 2 | 7.87 | 8.66 |
| 19:34 | 3 | 27.9 | 39 | 69,159 | 0 | 18.7 | 0.79 | 25.04 | 66.37 | 14.77 | 2.86 | 7.9 | 8.69 |
| 19:33 | 3 | 28 | 39 | 69,138 | 0 | 18.38 | 0.77 | 22.79 | 61.38 | 14.68 | 2.86 | 8.7 | 9.57 |
| 19:32 | 3 | 28 | 39 | 69,175 | 0 | 16.94 | 0.77 | 22.79 | 64.41 | 14.5 | 2.86 | 7.91 | 8.7 |